Weather History for KI39 - March, 2012

Change the Weather History Date:

Sunday, March 18, 2012

  Actual Average (KLOZ) Record (KLOZ)
Temperature  
Mean Temperature 68 °F 48 °F  
Max Temperature 77 °F 59 °F 83 °F (1982)
Min Temperature 59 °F 37 °F 13 °F (1967)
Degree Days  
Heating Degree Days 0 17  
Month to date heating degree days 351  
Since 1 July heating degree days 3627  
Cooling Degree Days 3 0  
Month to date cooling degree days 0  
Year to date cooling degree days 0  
Growing Degree Days 18 (Base 50)    
Moisture  
Dew Point 58 °F    
Average Humidity 75    
Maximum Humidity 100    
Minimum Humidity 50    
Precipitation  
Precipitation 0.00 in 0.13 in 1.66 in (2013)
Month to date precipitation 2.35  
Year to date precipitation 9.60  
Sea Level Pressure  
Sea Level Pressure 30.19 in    
Wind  
Wind Speed 6 mph (SSW)    
Max Wind Speed 15 mph    
Max Gust Speed 16 mph    
Visibility 10 miles    
Events      
T = Trace of Precipitation, MM = Missing Value Source: NWS Daily Summary

Daily Weather History Graph

Daily Weather History Graph

Search for Another Location

Airport or City:

Trip Planner

Search our weather history database for the weather conditions in past years. The results will help you decide how hot, cold, wet, or windy it might be!

Date:

Astronomy

Mar. 18, 2012 Rise Set
Actual Time 7:43 AM EDT 7:47 PM EDT
Civil Twilight 7:17 AM EDT 8:13 PM EDT
Nautical Twilight 6:46 AM EDT 8:44 PM EDT
Astronomical Twilight 6:15 AM EDT 9:15 PM EDT
Moon 5:17 AM EDT (3/18) 4:17 PM EDT (3/18)
Length of Visible Light 12h 56m
Length of Day
12h 04m
Waning Crescent, 15% of the Moon is Illuminated
Mar 18
Waning Crescent
Mar 22
New
Mar 30
First Quarter
Apr 6
Full
Apr 13
Last Quarter

Hourly Weather History & Observations

Time (EDT) Temp. Dew Point Humidity Pressure Visibility Wind Dir Wind Speed Gust Speed Precip Events Conditions
12:15 AM 62.6 °F 59.0 °F 88% 30.20 in 10.0 mi SW 3.5 mph - N/A   Overcast
12:35 AM 60.8 °F 59.0 °F 94% 30.20 in 10.0 mi NW 4.6 mph - N/A   Overcast
12:55 AM 60.8 °F 59.0 °F 94% 30.20 in 10.0 mi NNW 4.6 mph - N/A   Overcast
1:15 AM 60.8 °F 59.0 °F 94% 30.20 in 10.0 mi Calm Calm - N/A   Overcast
1:35 AM 60.8 °F 59.0 °F 94% 30.19 in 10.0 mi SSE 4.6 mph - N/A   Overcast
1:55 AM 60.8 °F 59.0 °F 94% 30.19 in 10.0 mi SSE 5.8 mph - N/A   Overcast
2:15 AM 60.8 °F 59.0 °F 94% 30.19 in 10.0 mi South 3.5 mph - N/A   Overcast
2:35 AM 60.8 °F 59.0 °F 94% 30.18 in 10.0 mi SE 3.5 mph - N/A   Mostly Cloudy
2:55 AM 59.0 °F 59.0 °F 100% 30.18 in 10.0 mi SSE 3.5 mph - N/A   Mostly Cloudy
3:15 AM 60.8 °F 57.2 °F 88% 30.19 in 10.0 mi South 5.8 mph - N/A   Overcast
3:35 AM 60.8 °F 57.2 °F 88% 30.19 in 10.0 mi South 4.6 mph - N/A   Overcast
4:15 AM 59.0 °F 57.2 °F 94% 30.19 in 10.0 mi South 10.4 mph - N/A   Overcast
4:35 AM 59.0 °F 57.2 °F 94% 30.18 in 10.0 mi South 9.2 mph - N/A   Mostly Cloudy
4:55 AM 59.0 °F 57.2 °F 94% 30.17 in 10.0 mi South 6.9 mph - N/A   Mostly Cloudy
5:15 AM 59.0 °F 57.2 °F 94% 30.17 in 10.0 mi South 5.8 mph - N/A   Overcast
5:35 AM 59.0 °F 57.2 °F 94% 30.17 in 10.0 mi South 8.1 mph - N/A   Overcast
5:55 AM 59.0 °F 57.2 °F 94% 30.16 in 10.0 mi SSE 9.2 mph - N/A   Overcast
6:15 AM 60.8 °F 57.2 °F 88% 30.16 in 10.0 mi SSE 9.2 mph - N/A   Overcast
6:35 AM 59.0 °F 57.2 °F 94% 30.18 in 10.0 mi Calm Calm - N/A   Overcast
6:55 AM 59.0 °F 57.2 °F 94% 30.20 in 10.0 mi South 3.5 mph - N/A   Overcast
7:15 AM 59.0 °F 55.4 °F 88% 30.20 in 10.0 mi South 5.8 mph - N/A   Overcast
7:35 AM 60.8 °F 55.4 °F 82% 30.20 in 10.0 mi South 6.9 mph - N/A   Overcast
8:15 AM 59.0 °F 55.4 °F 88% 30.21 in 10.0 mi SSE 4.6 mph - N/A   Mostly Cloudy
8:35 AM 59.0 °F 55.4 °F 88% 30.22 in 10.0 mi SSE 5.8 mph - N/A   Scattered Clouds
8:55 AM 60.8 °F 55.4 °F 82% 30.22 in 10.0 mi SSE 5.8 mph - N/A   Mostly Cloudy
9:15 AM 60.8 °F 55.4 °F 82% 30.22 in 10.0 mi SSE 4.6 mph - N/A   Overcast
9:35 AM 60.8 °F 55.4 °F 82% 30.22 in 10.0 mi SSE 4.6 mph - N/A   Scattered Clouds
9:55 AM 64.4 °F 55.4 °F 73% 30.23 in 10.0 mi South 8.1 mph - N/A   Scattered Clouds
10:15 AM 66.2 °F 55.4 °F 68% 30.23 in 10.0 mi South 10.4 mph - N/A   Scattered Clouds
10:35 AM 66.2 °F 55.4 °F 68% 30.23 in 10.0 mi South 6.9 mph 16.1 mph N/A   Clear
10:55 AM 68.0 °F 57.2 °F 68% 30.23 in 10.0 mi South 6.9 mph - N/A   Clear
11:15 AM 69.8 °F 57.2 °F 64% 30.23 in 10.0 mi South 8.1 mph - N/A   Clear
11:35 AM 69.8 °F 57.2 °F 64% 30.23 in 10.0 mi South 9.2 mph - N/A   Clear
11:55 AM 71.6 °F 57.2 °F 60% 30.23 in 10.0 mi SSW 15.0 mph - N/A   Clear
12:15 PM 71.6 °F 59.0 °F 64% 30.23 in 10.0 mi SSW 12.7 mph - N/A   Scattered Clouds
12:35 PM 73.4 °F 59.0 °F 61% 30.22 in 10.0 mi South 11.5 mph - N/A   Scattered Clouds
12:55 PM 73.4 °F 59.0 °F 61% 30.22 in 10.0 mi SSW 11.5 mph 16.1 mph N/A   Clear
1:15 PM 75.2 °F 59.0 °F 57% 30.22 in 10.0 mi SSW 9.2 mph - N/A   Clear
1:35 PM 75.2 °F 59.0 °F 57% 30.21 in 10.0 mi SW 5.8 mph - N/A   Clear
1:55 PM 75.2 °F 59.0 °F 57% 30.21 in 10.0 mi SW 9.2 mph - N/A   Clear
2:15 PM 75.2 °F 59.0 °F 57% 30.20 in 10.0 mi WSW 6.9 mph - N/A   Clear
2:35 PM 75.2 °F 59.0 °F 57% 30.19 in 10.0 mi SW 8.1 mph - N/A   Clear
3:15 PM 77.0 °F 59.0 °F 54% 30.17 in 10.0 mi SW 10.4 mph - N/A   Scattered Clouds
4:15 PM 75.2 °F 60.8 °F 61% 30.15 in 10.0 mi WSW 5.8 mph - N/A   Clear
4:35 PM 77.0 °F 59.0 °F 54% 30.14 in 10.0 mi SW 5.8 mph - N/A   Clear
4:55 PM 77.0 °F 59.0 °F 54% 30.14 in 10.0 mi SW 9.2 mph - N/A   Scattered Clouds
5:35 PM 77.0 °F 59.0 °F 54% 30.13 in 10.0 mi SW 5.8 mph - N/A   Clear
6:15 PM 77.0 °F 57.2 °F 50% 30.11 in 10.0 mi SW 11.5 mph - N/A   Scattered Clouds
6:35 PM 75.2 °F 57.2 °F 53% 30.11 in 10.0 mi SW 10.4 mph - N/A   Scattered Clouds
6:55 PM 75.2 °F 57.2 °F 53% 30.11 in 10.0 mi SW 5.8 mph - N/A   Clear
7:15 PM 75.2 °F 57.2 °F 53% 30.11 in 10.0 mi SW 4.6 mph - N/A   Clear
7:55 PM 73.4 °F 57.2 °F 57% 30.11 in 7.0 mi Calm Calm - N/A   Clear
8:15 PM 73.4 °F 57.2 °F 57% 30.11 in 10.0 mi SSW 3.5 mph - N/A   Clear
8:35 PM 71.6 °F 57.2 °F 60% 30.12 in 10.0 mi Calm Calm - N/A   Clear
8:55 PM 69.8 °F 57.2 °F 64% 30.12 in 10.0 mi South 3.5 mph - N/A   Clear
9:15 PM 69.8 °F 57.2 °F 64% 30.12 in 10.0 mi SSE 3.5 mph - N/A   Clear
9:35 PM 68.0 °F 57.2 °F 68% 30.13 in 10.0 mi SE 5.8 mph - N/A   Clear
9:55 PM 68.0 °F 57.2 °F 68% 30.13 in 10.0 mi SSE 5.8 mph - N/A   Clear
10:15 PM 68.0 °F 55.4 °F 64% 30.13 in 10.0 mi SSE 6.9 mph - N/A   Clear
10:35 PM 69.8 °F 55.4 °F 60% 30.13 in 10.0 mi SSE 5.8 mph - N/A   Clear
11:15 PM 68.0 °F 55.4 °F 64% 30.13 in 10.0 mi SSE 5.8 mph - N/A   Clear
11:35 PM 68.0 °F 55.4 °F 64% 30.13 in 10.0 mi South 5.8 mph - N/A   Clear
11:55 PM 68.0 °F 55.4 °F 64% 30.13 in 10.0 mi South 5.8 mph - N/A   Clear